Location: Poughquag
(41.6090°N, 73.6820°W)
Time: 12:09:47
(UTC-05:00)

Vanguard 3 - Pass Details

Date: 08 December 2023
Orbit: 508 x 3239 km, 33.4° (Epoch: 03 March)

Event Time Altitude Azimuth Distance (km) Brightness Sun altitude
Rises 18:29:02 0° 213° (SSW) 7,164 12.6 -22.6°
Reaches altitude 10° 18:34:59 10° 205° (SSW) 5,998 12.0 -23.6°
Maximum altitude 18:49:11 30° 153° (SSE) 3,784 10.3 -26.3°
Enters shadow 18:53:42 25° 125° (SE) 3,693 10.0 -27.1°
